User: anonymous   Login
Location: Beccas
(43.4309°N, 0.1528°E)
Time: 22:34:54
(UTC+00:00)
Language:

NOAA 16 DEB - Orbit

View from above orbital plane
View from above orbital plane
View from above satellite
View from above satellite

Ground track
Ground track

The orbit data is extracted from the following two-line orbital elements,

1 42338U 00055QE  22221.21565455  .00006031  00000-0  22287-2 0  9995
2 42338  98.7454 323.1975 0050077 180.9315 179.1783 14.32064368335852
Epoch (UTC): 09 August 2022 05:10:32
Eccentricity: 0.0050077
inclination: 98.7454°
perigee height: 749 km
apogee height: 821 km
right ascension of ascending node: 323.1975°
argument of perigee: 180.9315°
revolutions per day: 14.32064368
mean anomaly at epoch: 179.1783°
orbit number at epoch: 33585

The dashed part of the orbit path shows where the satellite is in the earth's shadow,  

DLR